Location: Hojšín
(49.6525°N, 14.2661°E)
Time: 23:55:33
(UTC+00:00)

Daily predictions for brighter satellites

Satellite Brightness Start Highest point End
(mag) Time Altitude Azimuth Time Altitude Azimuth Time Altitude Azimuth
Cosmos 2279 Rocket 4.0 16:56:14 10° N 17:02:31 76° E 17:08:47 10° SSE
Cosmos 2369 3.7 16:58:49 10° SSW 17:04:30 71° ESE 17:10:12 10° NNE
SL-08 RB Rocket 4.3 17:00:24 10° S 17:04:59 66° W 17:09:38 10° NNW
Cosmos 1733 Rocket 3.2 17:01:08 10° S 17:05:29 58° E 17:09:53 10° NNE
Cosmos 1844 Rocket 3.9 17:01:15 10° NNW 17:05:56 25° NE 17:10:34 10° E
BREEZE-M DEB (TANK) 4.3 17:01:47 10° SSW 17:06:02 49° SE 17:21:14 10° ENE
CZ-4B R/B 4.4 17:03:12 10° S 17:07:28 46° W 17:11:38 10° NNW
COBE Rocket 4.1 17:04:09 10° SE 17:08:44 45° ENE 17:13:15 10° N
Cosmos 2221 Rocket 3.6 17:04:43 10° N 17:09:15 69° ENE 17:13:47 10° SSE
Cosmos 2278 4.1 17:05:04 10° S 17:10:23 43° ESE 17:15:43 10° NE
SL-16 R/B 3.3 17:07:17 10° SSE 17:11:33 22° ESE 17:15:50 10° NE
Cosmos 1570 Rocket 4.5 17:08:11 10° NNW 17:13:10 41° ENE 17:18:06 10° SE
PAYLOAD B 4.2 17:08:32 10° SSE 17:14:01 75° ENE 17:19:32 10° NNW
CZ-4B DEB 4.3 17:09:58 10° SSE 17:15:26 84° WSW 17:20:58 10° NNW
SKYMED 3 4.5 17:11:24 10° NNE 17:15:30 59° ESE 17:19:34 10° S
BREEZE-M DEB (TANK) 3.0 17:17:20 10° W 17:19:22 36° SSW 17:22:14 10° SE
Cosmos 2278 Rocket 4.4 17:18:56 10° NNE 17:19:34 10° NNE 17:20:11 10° NNE
COSMO-SKYMED 1 2.6 17:20:40 10° NNE 17:25:02 88° E 17:29:24 10° SSW
Cosmos 2263 Rocket 2.4 17:19:55 10° NNW 17:25:38 79° WSW 17:31:20 10° SSE
Meteor 1-24 Rocket 4.3 17:22:25 10° N 17:27:13 33° ENE 17:32:02 10° SE
SJ-6B 4.3 17:26:36 12° E 17:28:38 18° ENE 17:31:16 10° NNE
Spot 1 4.0 17:26:22 10° NNE 17:30:33 60° ESE 17:34:34 10° S
Cosmos 1437 Rocket 3.5 17:27:29 10° SSE 17:30:42 28° E 17:33:56 10° NNE
ASTEX 1 3.4 17:26:02 10° N 17:31:03 89° E 17:36:03 10° S
HJ-1C 3.3 17:29:31 10° SSE 17:32:32 50° ENE 17:35:35 10° N
Cosmos 1741 Rocket 4.0 17:28:23 10° SSW 17:33:39 89° WNW 17:38:57 10° NNE
Feng Yun 1-1 Rocket 4.4 17:30:13 10° SE 17:35:29 52° ENE 17:40:43 10° N
USA 267 3.6 17:29:06 10° SE 17:35:37 68° SW 17:42:11 10° WNW
IRIDIUM 104 4.4 17:30:49 10° SSE 17:35:55 59° E 17:41:04 10° N
Cosmos 1814 Rocket 4.0 17:31:49 10° NNW 17:37:07 84° ENE 17:42:18 10° SSE
SL-4 R/B 2.7 17:33:48 10° WNW 17:38:07 57° SSW 17:42:26 11° SE
Cosmos 1844 4.4 17:35:27 10° NNW 17:40:30 34° NE 17:44:18 16° ESE
Cosmos 2084 Rocket 3.5 17:36:55 10° NW 17:40:38 48° NE 17:43:22 17° ESE
Cosmos 2208 Rocket 4.2 17:36:31 10° NNW 17:41:49 55° ENE 17:47:08 10° SE
Cosmos 1805 3.9 17:38:22 10° SSW 17:42:12 60° WNW 17:46:04 10° N
Cosmos 2227 4.2 17:37:18 10° NNW 17:42:58 88° ENE 17:48:36 10° SSE
Cosmos 1242 Rocket 4.0 17:40:10 10° SW 17:43:32 40° WNW 17:46:54 10° N
IRIDIUM 114 4.3 17:39:52 10° S 17:45:02 70° E 17:50:15 10° N
Okean-O 3.7 17:42:55 16° ESE 17:45:26 27° ENE 17:49:09 10° N
Cosmos 489 Rocket 4.5 17:40:41 10° S 17:46:57 68° ESE 17:53:14 10° NNE
ISS -1.3 17:45:18 10° W 17:47:45 19° SW 17:50:11 10° S
CZ-4 R/B 1.4 17:43:59 10° SSE 17:48:07 65° ENE 17:52:16 10° N
Cosmos 1697 Rocket 4.2 17:43:57 10° WSW 17:49:08 37° NW 17:54:22 10° NNE
IGS 5A 4.3 17:48:12 18° ESE 17:50:21 29° ENE 17:53:57 10° N
Meteor 1-12 Rocket 4.3 17:45:21 10° S 17:51:18 67° E 17:57:17 10° NNE
BREEZE M DEB (TANK) 3.7 17:46:10 10° SSW 17:51:37 24° SSE 17:53:02 19° SE
Cosmos 1908 Rocket 3.4 17:49:31 10° S 17:53:48 64° E 17:58:07 10° NNE
OBJECT-B 1.3 17:54:14 26° NE 17:54:14 26° NE 17:56:09 10° N
IRIDIUM 103 4.3 17:48:58 10° S 17:54:11 83° E 17:59:26 10° N
Meteor 2-21 4.4 17:48:23 10° S 17:54:26 90° E 18:00:31 10° N
Cosmos 2360 Rocket 3.2 17:51:47 10° SSE 17:56:09 24° ESE 18:00:31 10° NE
USA 81 4.4 17:52:42 10° N 17:57:44 42° ENE 18:02:39 10° SSE
Cosmos 1766 3.5 17:58:06 10° SSW 18:02:01 74° W 18:05:59 10° N
Cosmos 1782 Rocket 3.8 17:57:56 10° SSE 18:02:02 43° E 18:06:11 10° NNE
Cosmos 1025 Rocket 3.3 18:01:23 10° N 18:05:33 45° ENE 18:07:57 22° SE
YAOGAN 1 3.1 18:02:10 10° S 18:06:26 61° WSW 18:10:44 10° NNW
Cosmos 2026 Rocket 4.0 18:02:16 10° SSE 18:08:04 50° E 18:13:55 10° NNE
ATLAS 2AS CENTAUR R/B 4.3 18:02:19 10° NW 18:08:28 27° N 18:14:11 11° ENE
Cosmos 968 Rocket 3.4 18:03:40 10° SSW 18:08:53 69° ESE 18:14:06 10° NNE
Okean O Rocket 1.9 18:05:55 10° S 18:10:15 67° WSW 18:14:39 10° NNW
Lacrosse 4 Rocket 1.9 18:10:01 10° S 18:13:43 35° ESE 18:13:56 34° ESE
Meteor 2-5 Rocket 3.6 18:09:41 10° NNW 18:15:16 87° E 18:20:48 10° SSE
Nadezhda 4 Rocket 4.2 18:09:39 10° SSW 18:16:00 78° W 18:22:20 10° N
CSL-04 Rocket 3.7 18:13:27 18° SE 18:17:25 59° ENE 18:22:46 10° N
Meteor 1-15 Rocket 4.1 18:12:09 10° S 18:17:43 90° SE 18:23:20 10° NNE
Cosmos 1553 Rocket 4.3 18:12:15 10° N 18:18:20 45° ENE 18:21:53 24° SE
NOSS 3-4 (A) 4.5 18:14:52 10° NW 18:21:02 39° NNE 18:24:38 24° E
NOSS 3-4 (C) 4.5 18:14:58 10° NW 18:21:08 39° NNE 18:24:44 24° E
USA 186 1.7 18:22:41 53° SE 18:23:17 68° ENE 18:26:39 10° N
Cosmos 1726 4.1 18:21:04 10° SW 18:24:20 30° WNW 18:27:37 10° N
Cosmos 2322 Rocket 2.2 18:19:15 10° S 18:24:47 56° ESE 18:30:22 10° NE
Cosmos 2237 4.2 18:19:49 10° S 18:25:23 58° ESE 18:30:59 10° NE
Landsat 7 4.0 18:25:23 37° ESE 18:26:45 48° ENE 18:31:18 10° N
SPOT 1/Viking Rocket 4.3 18:27:16 30° ENE 18:27:49 31° ENE 18:32:19 10° N
Cosmos 1470 2.6 18:24:58 10° S 18:28:49 88° WNW 18:32:41 10° N
CZ-4B R/B 4.5 18:23:50 10° SSW 18:28:54 41° W 18:34:06 10° NNW
deb Chang Zheng 4 4.1 18:29:32 35° ENE 18:29:32 35° ENE 18:33:08 10° N
Cosmos 1975 Rocket 2.9 18:26:12 10° N 18:30:39 83° E 18:33:09 25° SSE
Cosmos 1980 Rocket 3.8 18:26:09 10° WSW 18:31:16 35° NW 18:36:23 10° NNE
NOSS 3-3 (A) 4.3 18:27:30 10° S 18:32:27 35° ESE 18:32:27 35° ESE
NOSS 3-3 (C) 4.3 18:27:37 10° S 18:32:21 34° ESE 18:32:21 34° ESE
Ariane Rocket 4.2 18:36:14 24° NE 18:36:14 24° NE 18:40:02 10° N
CRYOSAT 2 4.2 18:34:18 15° S 18:38:27 84° E 18:43:23 10° N
Cosmos 2292 Rocket 4.1 18:34:06 10° SSW 18:39:03 59° W 18:42:50 10° N
USA 215 3.7 18:36:54 15° NE 18:42:15 60° NNW 18:48:39 10° W
Aureole 1 Rocket 4.4 18:35:52 10° S 18:42:38 41° ESE 18:48:07 10° NE
IRS-1C Rocket 4.0 18:43:42 31° SSE 18:46:22 86° ENE 18:51:39 10° NNW
Cosmos 1844 Rocket 2.7 18:44:45 10° NNW 18:50:27 78° WSW 18:52:59 34° SSE
Landsat 5 3.7 18:50:30 10° NNE 18:55:01 80° WNW 18:59:27 10° SSW
SL-16 R/B 2.4 18:49:27 10° SW 18:55:07 70° WNW 19:00:49 10° NNE
Cosmos 1943 Rocket 4.2 18:54:03 10° N 18:56:31 13° NNE 18:57:29 12° NE
Cosmos 1092 Rocket 4.3 18:51:16 10° SSW 18:57:32 67° WNW 19:03:47 10° N
Resurs 01 Rocket 2.2 19:01:19 44° NNE 19:01:19 44° NNE 19:04:44 10° N
Terra 4.1 19:03:49 13° NNE 19:03:49 13° NNE 19:04:45 10° NNE
SJ-6B 3.6 19:02:08 39° SW 19:02:54 45° W 19:06:35 10° NNW
Cosmos 2278 Rocket 3.3 19:00:54 10° NNW 19:05:41 28° NE 19:05:41 28° NE
H-2A R/B 3.3 19:07:12 39° N 19:07:12 39° N 19:09:44 10° N
Resurs 1-3 4.0 19:11:26 56° SW 19:11:58 61° W 19:16:20 10° NNW
IRS-1A Rocket 4.2 19:15:25 66° E 19:15:37 67° ENE 19:21:24 10° N
MetOp-A 4.3 19:17:19 42° NNW 19:17:19 42° NNW 19:20:05 10° NNW
SL-4 R/B 4.5 19:14:09 10° W 19:17:01 17° SW 19:17:51 16° SSW
Cosmos 921 Rocket 4.1 19:12:36 10° NNW 19:15:35 37° NNE 19:15:35 37° NNE
Okean-O 3.8 19:20:29 32° SW 19:21:45 40° W 19:25:56 10° NNW
Cosmos 783 Rocket 4.5 19:17:51 10° NNW 19:22:48 76° N 19:22:48 76° N
CZ-4 R/B 4.4 19:21:05 10° SW 19:23:28 15° W 19:25:52 10° NW
Cosmos 1486 Rocket 4.2 19:19:03 10° SSW 19:24:22 72° WNW 19:29:44 10° NNE
Cosmos 1844 4.3 19:19:29 10° NW 19:24:51 51° WSW 19:26:12 42° SSW
Cosmos 2266 Rocket 4.2 19:26:59 55° NE 19:26:59 55° NE 19:32:17 10° NNE
Cosmos 1655 Rocket 4.4 19:28:46 47° NE 19:28:46 47° NE 19:33:28 10° NNE
DNEPR-1 R/B 4.2 19:24:06 10° SW 19:28:56 70° NW 19:30:36 45° NNE
S3M 3.8 19:23:25 10° N 19:29:42 86° E 19:30:10 78° SSE
Cosmos 2333 Rocket 4.4 19:36:34 13° NNE 19:36:34 13° NNE 19:37:04 10° NNE
Cosmos 773 Rocket 4.1 19:26:01 10° NNW 19:31:00 76° WNW 19:31:00 76° WNW
Meteor 1-21 Rocket 4.1 19:26:18 10° NNW 19:31:34 80° N 19:31:34 80° N
Cosmos 2360 Rocket 2.4 19:34:03 10° SW 19:39:39 66° WNW 19:45:18 10° NNE
Lacrosse 4 Rocket 3.6 19:48:35 10° WSW 19:50:17 21° W 19:50:17 21° W
ATLAS 2AS CENTAUR R/B 3.5 19:54:35 10° NW 20:01:23 40° NNE 20:01:35 40° NNE
Cosmos 2322 Rocket 3.8 20:04:03 10° WSW 20:09:09 32° NW 20:14:17 10° NNE
NOSS 3-4 (A) 3.8 20:05:40 10° NW 20:12:04 75° W 20:12:04 75° W
NOSS 3-4 (C) 3.8 20:05:47 10° NW 20:12:10 76° W 20:12:10 76° W
Ariane Rocket 4.4 20:16:26 36° NW 20:16:26 36° NW 20:19:37 10° NNW
USA 215 3.9 20:24:15 46° NNE 20:24:44 47° N 20:30:56 10° WNW
USA 281 3.7 20:27:40 54° N 20:27:40 54° N 20:32:40 10° NNW
Resurs 01 Rocket 4.3 20:38:53 16° WNW 20:38:53 16° WNW 20:40:26 10° NW
Terra 4.3 20:42:43 18° NNW 20:42:43 18° NNW 20:43:56 10° NNW
Cosmos 1943 Rocket 4.0 20:36:35 10° NNW 20:38:59 24° N 20:38:59 24° N
Cosmos 2278 Rocket 3.8 20:44:41 10° NNW 20:47:32 30° NW 20:47:32 30° NW
Cosmos 2369 Rocket 4.3 20:56:32 10° NNW 20:58:48 20° N 20:58:48 20° N
Cosmos 2333 Rocket 4.4 21:18:31 21° N 21:18:31 21° N 21:21:01 10° NNE
ATLAS 2AS CENTAUR R/B 4.3 21:45:48 10° NW 21:49:00 29° NW 21:49:00 29° NW
